Location: Newark
(20.0000°S, 47.0000°E)
Time: 03:04:54
(UTC+00:00)

Envisat - Pass Details

Date: 21 June 2019
Orbit: 764 x 766 km, 98.1° (Epoch: 17 July)

Event Time Altitude Azimuth Distance (km) Brightness Sun altitude
Exits shadow 15:25:59 18° 141° (SE) 1,846 4.5 -14.9°
Maximum altitude 15:29:24 39° 80° (E) 1,139 3.5 -15.6°
Drops below altitude 10° 15:34:07 10° 12° (NNE) 2,293 5.6 -16.7°
Sets 15:36:32 0° 4° (N) 3,212 6.4 -17.2°
